TimeCST,TemperatureF,Dew PointF,Humidity,Sea Level PressureIn,VisibilityMPH,Wind Direction,Wind SpeedMPH,Gust SpeedMPH,PrecipitationIn,Events,Conditions,WindDirDegrees,DateUTC
12:17 AM,-16.6,-20.2,84,30.16,-9999.0,Calm,Calm,-,N/A,,Unknown,0,2013-01-01 06:17:00
12:36 AM,-18.4,-23.8,76,30.15,-9999.0,Calm,Calm,-,N/A,,Clear,0,2013-01-01 06:36:00
12:57 AM,-18.4,-23.8,76,30.15,-9999.0,Calm,Calm,-,N/A,,Clear,0,2013-01-01 06:57:00
1:17 AM,-18.4,-23.8,76,30.15,-9999.0,Calm,Calm,-,N/A,,Clear,0,2013-01-01 07:17:00
1:36 AM,-18.4,-23.8,76,30.14,-9999.0,Calm,Calm,-,N/A,,Unknown,0,2013-01-01 07:36:00
2:17 AM,-18.4,-23.8,76,30.15,-9999.0,Calm,Calm,-,N/A,,Clear,0,2013-01-01 08:17:00
2:36 AM,-18.4,-23.8,76,30.15,-9999.0,Calm,Calm,-,N/A,,Clear,0,2013-01-01 08:36:00
3:17 AM,-18.4,-23.8,76,30.15,-9999.0,Calm,Calm,-,N/A,,Clear,0,2013-01-01 09:17:00
3:36 AM,-18.4,-23.8,76,30.14,-9999.0,Calm,Calm,-,N/A,,Clear,0,2013-01-01 09:36:00
3:57 AM,-18.4,-23.8,76,30.14,-9999.0,Calm,Calm,-,N/A,,Clear,0,2013-01-01 09:57:00
4:16 AM,-16.6,-20.2,84,30.13,-9999.0,Calm,Calm,-,N/A,,Unknown,0,2013-01-01 10:16:00
4:37 AM,-16.6,-20.2,84,30.13,5.0,Calm,Calm,-,N/A,,Clear,0,2013-01-01 10:37:00
4:57 AM,-16.6,-20.2,84,30.13,3.0,Calm,Calm,-,N/A,,Clear,0,2013-01-01 10:57:00
5:16 AM,-18.4,-23.8,76,30.12,-9999.0,Calm,Calm,-,N/A,,Unknown,0,2013-01-01 11:16:00
5:37 AM,-16.6,-20.2,84,30.11,-9999.0,Calm,Calm,-,N/A,,Unknown,0,2013-01-01 11:37:00
5:57 AM,-18.4,-23.8,76,30.11,-9999.0,Calm,Calm,-,N/A,,Clear,0,2013-01-01 11:57:00
6:16 AM,-18.4,-23.8,76,30.10,-9999.0,Calm,Calm,-,N/A,,Clear,0,2013-01-01 12:16:00
6:37 AM,-18.4,-23.8,76,30.10,-9999.0,Calm,Calm,-,N/A,,Clear,0,2013-01-01 12:37:00
6:57 AM,-18.4,-23.8,76,30.10,-9999.0,Calm,Calm,-,N/A,,Clear,0,2013-01-01 12:57:00
7:16 AM,-20.2,-25.6,76,30.09,-9999.0,Calm,Calm,-,N/A,,Clear,0,2013-01-01 13:16:00
7:37 AM,-20.2,-25.6,76,30.09,-9999.0,Calm,Calm,-,N/A,,Clear,0,2013-01-01 13:37:00
7:57 AM,-16.6,-22.0,76,30.08,-9999.0,Calm,Calm,-,N/A,,Clear,0,2013-01-01 13:57:00
8:16 AM,-13.0,-16.6,84,30.07,-9999.0,Calm,Calm,-,N/A,,Unknown,0,2013-01-01 14:16:00
8:37 AM,-11.2,-14.8,84,30.07,10.0,Calm,Calm,-,N/A,,Clear,0,2013-01-01 14:37:00
9:16 AM,-7.6,-11.2,84,30.06,10.0,Calm,Calm,-,N/A,,Clear,0,2013-01-01 15:16:00
9:37 AM,-4.0,-7.6,85,30.06,10.0,WSW,4.6,-,N/A,,Clear,240,2013-01-01 15:37:00
9:57 AM,-2.2,-5.8,85,30.06,10.0,WSW,4.6,-,N/A,,Clear,240,2013-01-01 15:57:00
10:16 AM,-0.4,-5.8,78,30.05,10.0,SW,4.6,-,N/A,,Clear,220,2013-01-01 16:16:00
10:37 AM,-0.4,-4.0,85,30.05,10.0,WSW,9.2,-,N/A,,Clear,250,2013-01-01 16:37:00
11:17 AM,3.2,-2.2,78,30.03,10.0,SW,8.1,-,N/A,,Scattered Clouds,230,2013-01-01 17:17:00
11:37 AM,3.2,-0.4,85,30.02,10.0,WSW,8.1,-,N/A,,Mostly Cloudy,250,2013-01-01 17:37:00
12:17 PM,6.8,-0.4,72,29.99,10.0,WSW,9.2,-,N/A,,Clear,240,2013-01-01 18:17:00
12:37 PM,6.8,1.4,79,29.98,10.0,WSW,10.4,-,N/A,,Clear,250,2013-01-01 18:37:00
12:56 PM,8.6,1.4,73,29.98,10.0,WSW,12.7,16.1,N/A,,Clear,250,2013-01-01 18:56:00
1:17 PM,6.8,1.4,79,29.98,10.0,West,12.7,-,N/A,,Mostly Cloudy,260,2013-01-01 19:17:00
1:37 PM,6.8,1.4,79,29.98,7.0,WSW,10.4,-,N/A,,Overcast,240,2013-01-01 19:37:00
1:56 PM,6.8,3.2,85,29.97,3.0,WSW,5.8,-,N/A,Snow,Light Snow,250,2013-01-01 19:56:00
2:17 PM,6.8,3.2,85,29.96,2.0,SW,5.8,-,N/A,Snow,Light Snow,230,2013-01-01 20:17:00
2:37 PM,8.6,3.2,79,29.96,2.0,WSW,8.1,-,N/A,Snow,Light Snow,240,2013-01-01 20:37:00
2:56 PM,8.6,3.2,79,29.96,2.0,SW,6.9,-,N/A,Snow,Light Snow,230,2013-01-01 20:56:00
3:17 PM,8.6,3.2,79,29.96,2.5,SW,6.9,-,N/A,Snow,Light Snow,230,2013-01-01 21:17:00
3:37 PM,8.6,3.2,79,29.95,3.0,SSW,4.6,-,N/A,Snow,Light Snow,210,2013-01-01 21:37:00
4:17 PM,8.6,5.0,85,29.95,4.0,SSW,4.6,-,N/A,Snow,Light Snow,210,2013-01-01 22:17:00
4:37 PM,8.6,6.8,92,29.95,3.0,SW,4.6,-,N/A,Snow,Light Snow,220,2013-01-01 22:37:00
5:16 PM,10.4,6.8,85,29.96,7.0,SW,4.6,-,N/A,Snow,Light Snow,220,2013-01-01 23:16:00
5:37 PM,10.4,6.8,85,29.95,7.0,SW,4.6,-,N/A,Snow,Light Snow,220,2013-01-01 23:37:00
5:57 PM,10.4,6.8,85,29.95,10.0,SW,4.6,-,N/A,Snow,Light Snow,220,2013-01-01 23:57:00
6:16 PM,10.4,6.8,85,29.96,10.0,SW,4.6,-,N/A,Snow,Light Snow,230,2013-01-02 00:16:00
6:37 PM,10.4,6.8,85,29.95,10.0,SW,3.5,-,N/A,Snow,Light Snow,220,2013-01-02 00:37:00
6:57 PM,10.4,6.8,85,29.95,10.0,SSW,3.5,-,N/A,Snow,Light Snow,210,2013-01-02 00:57:00
7:16 PM,10.4,8.6,92,29.94,10.0,Calm,Calm,-,N/A,Snow,Light Snow,0,2013-01-02 01:16:00
7:37 PM,10.4,8.6,92,29.93,10.0,Calm,Calm,-,N/A,,Overcast,0,2013-01-02 01:37:00
7:57 PM,12.2,8.6,85,29.93,10.0,SSW,4.6,-,N/A,,Overcast,200,2013-01-02 01:57:00
8:16 PM,12.2,10.4,92,29.92,10.0,South,5.8,-,N/A,,Overcast,190,2013-01-02 02:16:00
8:37 PM,12.2,10.4,92,29.91,10.0,South,4.6,-,N/A,,Overcast,190,2013-01-02 02:37:00
8:56 PM,12.2,10.4,92,29.90,10.0,South,3.5,-,N/A,,Overcast,180,2013-01-02 02:56:00
9:16 PM,12.2,10.4,92,29.90,7.0,South,5.8,-,N/A,,Overcast,180,2013-01-02 03:16:00
9:37 PM,12.2,10.4,92,29.89,7.0,South,4.6,-,N/A,,Overcast,180,2013-01-02 03:37:00
9:56 PM,12.2,10.4,92,29.90,7.0,South,4.6,-,N/A,,Overcast,190,2013-01-02 03:56:00
10:16 PM,12.2,10.4,92,29.89,5.0,SSW,8.1,-,N/A,,Overcast,200,2013-01-02 04:16:00
10:37 PM,12.2,12.2,100,29.89,5.0,SSW,4.6,-,N/A,,Overcast,200,2013-01-02 04:37:00
10:56 PM,12.2,12.2,100,29.89,5.0,SSW,4.6,-,N/A,,Overcast,200,2013-01-02 04:56:00
11:17 PM,12.2,12.2,100,29.88,5.0,South,5.8,-,N/A,,Overcast,180,2013-01-02 05:17:00
11:37 PM,14.0,12.2,93,29.88,5.0,South,4.6,-,N/A,,Overcast,190,2013-01-02 05:37:00
11:56 PM,14.0,12.2,93,29.87,5.0,South,5.8,-,N/A,,Overcast,190,2013-01-02 05:56:00